Location: Morlupo
(42.1333°N, 12.5000°E)
Time: 16:13:42
(UTC+00:00)

Cosmos 1627 Rocket - Pass Details

Date: 18 September 2020
Orbit: 951 x 1003 km, 82.9° (Epoch: 25 October)

Event Time Altitude Azimuth Distance (km) Brightness Sun altitude
Rises 19:44:11 0° 352° (N) 3,731 8.1 -27.4°
Reaches altitude 10° 19:46:43 10° 353° (N) 2,781 7.3 -27.8°
Maximum altitude 19:53:08 88° 83° (E) 1,010 4.4 -28.8°
Enters shadow 19:53:35 79° 162° (SSE) 1,026 4.4 -28.9°
